W3EX Weather Reports


time (UTC)temp
C
wind
direction
speed
KPH
gust
KPH
rain 1hr
cm
rain 24hr
cm
rain mn
cm
humidity
%
barometer
mb
20260504140112 15 355 3.2 9.7 0.00 0.00 0.00 56 1010.1
20260504110120 3 207 0.0 0.0 0.00 0.00 0.00 80 1011.3
20260504081602 3 208 0.0 0.0 0.00 0.00 0.00 77 1011.1
20260504050107 6 238 0.0 0.0 0.00 0.00 0.00 65 1010.9
20260504044504 7 237 0.0 0.0 0.00 0.00 0.00 60 1010.8
20260504043103 7 237 0.0 0.0 0.00 0.00 0.00 57 1010.7
20260504041502 7 237 0.0 0.0 0.00 0.00 0.00 57 1010.5
20260504040107 8 237 0.0 0.0 0.00 0.00 0.00 55 1010.4
20260504034502 8 237 0.0 0.0 0.00 0.00 0.00 53 1010.2
20260504033116 9 237 0.0 3.2 0.00 0.00 0.00 52 1010.1
20260504031502 9 234 0.0 0.0 0.00 0.00 0.00 51 1010.2
20260504024503 10 240 0.0 3.2 0.00 0.00 0.00 49 1010.1
20260504023102 9 323 0.0 4.8 0.00 0.00 0.00 50 1010.0
20260504021502 10 263 0.0 0.0 0.00 0.00 0.00 49 1010.1
20260504020103 10 263 0.0 3.2 0.00 0.00 0.00 47 1010.0
20260504014604 11 327 0.0 3.2 0.00 0.00 0.00 46 1009.9
20260504013002 11 350 0.0 3.2 0.00 0.00 0.00 46 1009.8
20260504011602 11 335 0.0 1.6 0.00 0.00 0.00 46 1009.7
20260504010002 11 338 0.0 0.0 0.00 0.00 0.00 44 1009.5
20260504004604 12 338 0.0 3.2 0.00 0.00 0.00 41 1009.4
20260504003002 12 344 0.0 3.2 0.00 0.00 0.00 40 1009.1
20260504001615 13 305 0.0 6.4 0.00 0.00 0.00 39 1008.9
20260504000003 13 355 3.2 8.0 0.00 0.00 0.00 38 1008.8
20260503234602 13 348 1.6 14.5 0.00 0.00 0.00 37 1008.7
20260503233002 14 336 1.6 6.4 0.00 0.00 0.00 36 1008.5
20260503231603 15 344 1.6 8.0 0.00 0.00 0.00 35 1008.5
20260503230002 15 321 3.2 14.5 0.00 0.00 0.00 34 1008.5
20260503224604 15 355 6.4 17.7 0.00 0.00 0.00 33 1008.5
20260503223003 15 342 6.4 20.9 0.00 0.00 0.00 32 1008.4
20260503221602 15 348 12.9 24.1 0.00 0.00 0.00 32 1008.3
20260503220004 15 355 6.4 19.3 0.00 0.00 0.00 32 1008.3
20260503214602 15 52 6.4 20.9 0.00 0.00 0.00 32 1008.3
20260503213003 15 335 9.7 20.9 0.00 0.00 0.00 33 1008.3
20260503211611 15 330 14.5 27.4 0.00 0.00 0.00 30 1008.2
20260503210003 15 337 9.7 22.5 0.00 0.00 0.00 31 1008.2
20260503204607 15 324 8.0 24.1 0.00 0.00 0.00 35 1008.4
20260503203002 14 342 11.3 20.9 0.00 0.00 0.00 35 1008.5
20260503201602 14 5 12.9 25.7 0.00 0.00 0.00 32 1008.5
20260503200003 14 360 8.0 24.1 0.00 0.00 0.00 35 1008.7
20260503194604 14 5 8.0 27.4 0.00 0.00 0.00 35 1008.8
20260503193003 14 355 12.9 29.0 0.00 0.00 0.00 36 1009.0
20260503191603 13 5 16.1 32.2 0.00 0.00 0.00 34 1009.1
20260503190002 13 47 12.9 32.2 0.00 0.00 0.00 38 1009.2
20260503184602 13 15 11.3 32.2 0.00 0.00 0.00 34 1009.3
20260503183006 13 5 16.1 27.4 0.00 0.00 0.00 37 1009.6
20260503181624 13 355 12.9 29.0 0.00 0.00 0.00 35 1009.5
20260503180135 12 319 9.7 27.4 0.00 0.00 0.00 37 1009.6
20260503174602 12 18 8.0 29.0 0.00 0.00 0.00 39 1009.7
20260503173009 12 5 16.1 27.4 0.00 0.00 0.00 37 1009.8
20260503171602 12 35 12.9 24.1 0.00 0.00 0.00 39 1009.8